Regional Weather Roundup
Issued by NWS

Home | Current Version | Previous Version | Text Only | Print | Product List | Glossary On
Versions: 1 2 3 4 5 6 7 8 9 10 11 12 13 14 15 16 17 18 19 20 21 22 23 24 25 26 27 28 29 30 31 32 33 34 35 36 37 38 39 40 41 42 43 44 45 46 47 48 49 50
572
ASUS42 KTBW 030116
RWRFL
FLORIDA REGIONAL WEATHER ROUNDUP
NATIONAL WEATHER SERVICE TAMPA BAY RUSKIN FL
900 PM EDT MON MAY 02 2016

NOTE: "FAIR" INDICATES FEW OR NO CLOUDS BELOW 12,000 FEET WITH NO
SIGNIFICANT WEATHER AND/OR OBSTRUCTIONS TO VISIBILITY.

FLZ001>010-012>015-112-114-115-030200-
PANHANDLE FLORIDA

CITY           SKY/WX    TMP DP  RH WIND       PRES   REMARKS
PENSACOLA      CLOUDY    77  71  82 SW7       29.94S
MILTON NAS     TSTM      68  68 100 NW7       29.96R
CRESTVIEW      CLOUDY    75  65  70 W8        29.97R
PANAMA CITY    FAIR      76  72  87 S5        29.95S
APALACHICOLA   MOCLDY    77  73  87 SW7       29.96R

STATION/POSITION SKY/WX   TEMP    WIND        PRES    WAVE   SWELL
                          AIR SEA DIR/SP/G            HT/PER HT/PER
                          (F)     (DEG/KT/KT) (MB)    (FT/S) (FT/S)
30.1N   87.6W              76 76  150/  4/  4 1012.8R   3/ 7   3/ 7
29.2N   88.2W              76 77  160/ 10/ 12 1012.4F
28.8N   86.0W              78 79  240/  8/  8 1015.0R   2/ 5   2/ 5
PANAMA CITY BEAC           76 80              1014.8R
TOWER C                    75     200/  9/ 10 1015.5R
28.5N   84.5W              77 76  180/  8/  8 1014.2S   2/ 5   2/ 5

$$
FLZ011-016>038-118-127-128-134-139-239-030200-
NORTH FLORIDA

CITY           SKY/WX    TMP DP  RH WIND       PRES   REMARKS
MARIANNA       MOCLDY    76  73  91 W6        29.95R
TALLAHASSEE    MOCLDY    77  67  71 W5        29.96R
PERRY          CLEAR     76  70  82 CALM      29.96S
LIVE OAK       FAIR      79  66  65 CALM      29.97S
CROSS CITY       N/A     76  68  76 SW5       29.96R
LAKE CITY      FAIR      77  68  73 W6        29.97R
GAINESVILLE    CLEAR     80  67  64 W9        29.96R
WILLISTON      FAIR      79  70  73 W6        29.96S
MAYPORT NAS    CLOUDY    75  72  90 S13G22    29.95R
JACKSONVILLE   CLOUDY    76  70  82 CALM      29.97R
JAX NAS        TSTM      80  70  71 S14       29.98R
JAX CECIL      MOCLDY    77  70  78 E9        29.97R
FERNANDINA BEA FAIR      79  72  78 S10       29.95S
ST AUGUSTINE   CLOUDY    77  72  84 S15G21    29.97R
PALM COAST     FAIR      77  73  88 SE10      29.95R

STATION/POSITION SKY/WX   TEMP    WIND        PRES    WAVE   SWELL
                          AIR SEA DIR/SP/G            HT/PER HT/PER
                          (F)     (DEG/KT/KT) (MB)    (FT/S) (FT/S)
SHELL POINT                80     200/ 11/ 13 1012.5
KEATON BEACH               78     210/  8/ 10 1013.9S
CEDAR KEY                  78     290/  4/  5 1015.0R
FERNANDINA                 76 74              1014.0S
30.7N   81.3W                 74                N/A     3/ 4
MAYPORT                    76 72              1014.1R
ST AUGUSTINE               75 75  150/ 12/ 14 1015.5R

$$
FLZ040-043>046-052-053-057-058-063-144-030200-
INTERIOR CENTRAL FLORIDA

CITY           SKY/WX    TMP DP  RH WIND       PRES   REMARKS
OCALA          PTCLDY    79  66  65 W3        29.97R
THE VILLAGES     N/A     79  72  78 SW5G12    29.86R
LEESBURG       CLOUDY    79  66  64 W7        29.98R
SANFORD        PTCLDY    79  71  76 SE12      29.97R
ORLANDO EXEC   TSTM      80  72  76 SE12      29.97R
ORLANDO INTL   TSTM      79  71  76 SE10      29.97R
KISSIMMEE      TSTM      81  73  78 SW9       29.99R
WINTER HAVEN   LGT RAIN  79  71  76 W7        29.99R
LAKELAND       MOCLDY    82  66  57 W5        29.97R
BARTOW         MIX PCPN  77  68  73 S12       29.98R
OKEECHOBEE     CLOUDY    79  70  73 SE8       29.99R

$$
FLZ041-047-054-059-064-141-147-030200-
EAST CENTRAL FLORIDA

CITY           SKY/WX    TMP DP  RH WIND       PRES   REMARKS
DAYTONA BEACH  PTCLDY    78  72  81 SE8       29.96R
NEW SMYRNA BEA CLEAR     77  72  83 S16G25    29.96R
TITUSVILLE     PTCLDY    79  75  89 SE12      29.97R
MELBOURNE      CLEAR     78  72  81 SE17      29.97R
VERO BEACH     CLEAR     78  72  81 SE13      29.99R
FT PIERCE      PTCLDY    77  72  84 SE16      29.98R
STUART         CLEAR     81  73  78 SE12      30.00R

STATION/POSITION SKY/WX   TEMP    WIND        PRES    WAVE   SWELL
                          AIR SEA DIR/SP/G            HT/PER HT/PER
                          (F)     (DEG/KT/KT) (MB)    (FT/S) (FT/S)
28.5N   80.2W              78 77  140/ 16/ 19 1015.1F
28.9N   78.5W              77 79  140/ 16/ 17 1016.5R
TRIDENT PIER               78 80              1014.8S
28.4N   80.5W                 78                N/A     3/ 4
27.5N   80.2W                 77                N/A     3/10   2/11

$$
FLZ050-056-061-142-242-148-248-149-249-151-251-155-255-
160-260-030200-
WEST CENTRAL FLORIDA

CITY           SKY/WX    TMP DP  RH WIND       PRES   REMARKS
CRYSTAL RIVER  FAIR      77  72  83 W5        29.97S
INVERNESS      FAIR      77  72  83 CALM      29.97S
BROOKSVILLE    CLEAR     76  70  82 W6        29.98R
ZEPHYRHILLS    FAIR      78  67  69 NW6       29.97R
CLEARWATER AIR FAIR      77  72  83 W5        29.97R
ST PETE CLEARW CLEAR     78  71  79 W10       29.97R
TAMPA INTL     PTCLDY    80  70  71 W8        29.97R
TAMPA EXEC     PTCLDY    82  68  61 W3        29.97S
PLANT CITY     CLOUDY    82  72  69 W7        29.98S
PETER O KNIGHT PTCLDY    82  72  69 W6        29.97R
ST PETERSBURG  CLEAR     79  72  79 W10       29.95R
SARASOTA       PTCLDY    79  72  79 W7        29.96R
VENICE         NOT AVBL

STATION/POSITION SKY/WX   TEMP    WIND        PRES    WAVE   SWELL
                          AIR SEA DIR/SP/G            HT/PER HT/PER
                          (F)     (DEG/KT/KT) (MB)    (FT/S) (FT/S)
27.3N   84.2W                 80                N/A     2/ 7
CLEARWATER BEACH           79 82              1014.6R
MIDDLE TAMPA BAY           79                 1014.7R
VENICE                     79 83  220/  8/  9 1014.1R

$$
FLZ066-069-070-075>078-162-262-165-265-030200-
SOUTHWEST FLORIDA AND KEYS

CITY           SKY/WX    TMP DP  RH WIND       PRES   REMARKS
PUNTA GORDA    CLEAR     80  73  79 SW6       29.98R
FT MYERS       CLEAR     80  73  79 SW5       29.97R
SOUTHWEST INTL PTCLDY    78  73  84 SW6       29.98R
NAPLES         MOCLDY    81  74  79 S5        29.97R
MARCO ISLAND   CLOUDY    81  72  74 S5        29.97R
MARATHON       PTCLDY    81  75  82 E8        29.98R
KEY WEST NAS   PTCLDY    80  74  81 E15       29.97R
KEY WEST INTL  CLEAR     78  76  93 E13       29.97R

STATION/POSITION SKY/WX   TEMP    WIND        PRES    WAVE   SWELL
                          AIR SEA DIR/SP/G            HT/PER HT/PER
                          (F)     (DEG/KT/KT) (MB)    (FT/S) (FT/S)
NAPLES                        84              1014.2R
26.0N   85.6W              80 80   90/  6/  6 1014.8R   4/ 8   3/ 8
DRY TORTUGAS               79     100/  5/  5 1014.8R
SAND KEY                   80     120/ 16/ 18 1015.1R
LONG KEY                   81 83  100/ 13/ 14 1015.0R

$$
FLZ067-068-071>074-168-172>174-030200-
SOUTHEAST FLORIDA

CITY           SKY/WX    TMP DP  RH WIND       PRES   REMARKS
W PALM BEACH   PTCLDY    80  71  74 SE14G22   30.00R
BOCA RATON     MOCLDY    79  73  83 SE14      29.99R
FT LAUDER-EXEC PTCLDY    80  72  76 SE15      29.99R
FT LAUDERDALE  MOCLDY    81  72  74 SE15      29.99R
POMPANO BEACH  PTCLDY    80  73  79 SE17      29.99R
PEMBROKE PINES PTCLDY    81  71  71 SE10      30.01R
OPA LOCKA      MOCLDY    81  72  74 SE10      30.00R
MIAMI          PTCLDY    80  73  79 E14       29.99R
WEST KENDALL   CLEAR     79  72  79 SE13      29.99R
HOMESTEAD      NOT AVBL

STATION/POSITION SKY/WX   TEMP    WIND        PRES    WAVE   SWELL
                          AIR SEA DIR/SP/G            HT/PER HT/PER
                          (F)     (DEG/KT/KT) (MB)    (FT/S) (FT/S)
PORT EVERGLADES            80     120/  8/ 14 1015.0R
VIRGINIA KEY               80 83              1015.5R
LAKE WORTH                 79 80              1014.8F
SETTLEMENT POINT           78     140/ 11/ 14 1017.0R

$$





USA.gov is the U.S. government's official web portal to all federal, state and local government web resources and services.